• Em Portugal
  • Lista de países
  • Para 7 dias
  • Temperatura da água
  • Mapas de satélite
  • Mapa do tempo
  • Widgets de tempo
  • user-avatar
    Iniciar Sessão

    Previsão horária em Kaprun

    Hoje, 23 Maio, Quarta-feira

    Tempo Temperatura Precipitação Vento Pressão Humidade
    00:00 +3°C° 0 mm 2 m/s 596 mmHg 92%
    01:00 +3°C° 0 mm 2 m/s 596 mmHg 91%
    02:00 +3°C° 0 mm 2 m/s 596 mmHg 92%
    03:00 +2°C° 0 mm 2 m/s 596 mmHg 93%
    04:00 +3°C° 0 mm 1 m/s 596 mmHg 93%
    05:00 +4°C° 0 mm 1 m/s 597 mmHg 90%
    06:00 +5°C° 0 mm 1 m/s 597 mmHg 88%
    07:00 +6°C° 0 mm 0 m/s 598 mmHg 84%
    08:00 +8°C° 0 mm 1 m/s 599 mmHg 80%
    09:00 +10°C° 0 mm 1 m/s 599 mmHg 75%
    10:00 +11°C° 0 mm 1 m/s 600 mmHg 71%
    11:00 +12°C° 0,2 mm 1 m/s 600 mmHg 71%
    12:00 +12°C° 0,2 mm 1 m/s 600 mmHg 72%
    13:00 +12°C° 0 mm 2 m/s 600 mmHg 74%
    14:00 +12°C° 0,6 mm 2 m/s 600 mmHg 77%
    15:00 +12°C° 0,6 mm 1 m/s 600 mmHg 79%
    16:00 +11°C° 0,6 mm 1 m/s 600 mmHg 81%
    17:00 +10°C° 0,5 mm 1 m/s 599 mmHg 85%
    18:00 +9°C° 0,5 mm 1 m/s 599 mmHg 88%
    19:00 +8°C° 0,5 mm 1 m/s 598 mmHg 92%
    20:00 +8°C° 0,6 mm 1 m/s 598 mmHg 93%
    21:00 +7°C° 0,6 mm 1 m/s 598 mmHg 94%
    22:00 +6°C° 0,6 mm 1 m/s 598 mmHg 96%
    23:00 +6°C° 0,3 mm 1 m/s 598 mmHg 96%

    Amanhã, 24 Maio, Quinta-feira

    Tempo Temperatura Precipitação Vento Pressão Humidade
    00:00 +5°C° 0,3 mm 1 m/s 598 mmHg 96%
    01:00 +5°C° 0,3 mm 1 m/s 598 mmHg 96%
    02:00 +5°C° 0,2 mm 1 m/s 598 mmHg 95%
    03:00 +5°C° 0,2 mm 1 m/s 598 mmHg 95%
    04:00 +5°C° 0,2 mm 1 m/s 598 mmHg 95%
    05:00 +6°C° 0,2 mm 1 m/s 598 mmHg 93%
    06:00 +7°C° 0,2 mm 1 m/s 599 mmHg 91%
    07:00 +8°C° 0,2 mm 1 m/s 599 mmHg 89%
    08:00 +9°C° 0,2 mm 1 m/s 600 mmHg 84%
    09:00 +10°C° 0,2 mm 1 m/s 601 mmHg 79%
    10:00 +12°C° 0,2 mm 1 m/s 601 mmHg 74%
    11:00 +12°C° 1,1 mm 1 m/s 601 mmHg 75%
    12:00 +12°C° 1,1 mm 1 m/s 601 mmHg 76%
    13:00 +13°C° 1,1 mm 1 m/s 601 mmHg 78%
    14:00 +12°C° 1,4 mm 1 m/s 601 mmHg 79%
    15:00 +12°C° 1,4 mm 1 m/s 600 mmHg 80%
    16:00 +12°C° 1,4 mm 1 m/s 600 mmHg 81%
    17:00 +11°C° 0,9 mm 1 m/s 600 mmHg 85%
    18:00 +9°C° 0,9 mm 0 m/s 600 mmHg 89%
    19:00 +9°C° 0,9 mm 0 m/s 599 mmHg 93%
    20:00 +8°C° 0,4 mm 1 m/s 599 mmHg 94%
    21:00 +7°C° 0,4 mm 1 m/s 599 mmHg 94%
    22:00 +6°C° 0,4 mm 1 m/s 599 mmHg 95%
    23:00 +6°C° 0 mm 1 m/s 599 mmHg 95%

    Depois de amanhã, 25 Maio, Sexta-feira

    Tempo Temperatura Precipitação Vento Pressão Humidade
    00:00 +6°C° 0 mm 1 m/s 599 mmHg 95%
    01:00 +5°C° 0 mm 1 m/s 598 mmHg 95%
    02:00 +5°C° 0 mm 1 m/s 598 mmHg 95%
    03:00 +5°C° 0 mm 1 m/s 598 mmHg 95%
    04:00 +3°C° 0 mm 2 m/s 598 mmHg 95%
    05:00 +6°C° 0 mm 1 m/s 599 mmHg 92%
    06:00 +8°C° 0 mm 1 m/s 600 mmHg 89%
    07:00 +9°C° 0 mm 1 m/s 600 mmHg 86%
    08:00 +11°C° 0 mm 1 m/s 601 mmHg 75%
    09:00 +13°C° 0 mm 1 m/s 602 mmHg 64%
    10:00 +15°C° 0 mm 1 m/s 603 mmHg 53%
    11:00 +16°C° 0,1 mm 1 m/s 603 mmHg 50%
    12:00 +17°C° 0,1 mm 2 m/s 603 mmHg 48%
    13:00 +17°C° 0,1 mm 2 m/s 603 mmHg 45%
    14:00 +17°C° 0,3 mm 2 m/s 603 mmHg 50%
    15:00 +16°C° 0,3 mm 2 m/s 603 mmHg 54%
    16:00 +15°C° 0,3 mm 2 m/s 602 mmHg 59%
    17:00 +14°C° 0,6 mm 2 m/s 602 mmHg 68%
    18:00 +13°C° 0,6 mm 1 m/s 601 mmHg 77%
    19:00 +11°C° 0,6 mm 1 m/s 601 mmHg 86%
    20:00 +10°C° 0,2 mm 1 m/s 601 mmHg 89%
    21:00 +8°C° 0,2 mm 1 m/s 600 mmHg 92%
    22:00 +7°C° 0,2 mm 1 m/s 600 mmHg 95%
    23:00 +7°C° 0 mm 1 m/s 600 mmHg 94%

    26 Maio, Sábado

    Tempo Temperatura Precipitação Vento Pressão Humidade
    00:00 +6°C° 0 mm 1 m/s 600 mmHg 94%
    01:00 +6°C° 0 mm 1 m/s 600 mmHg 93%
    02:00 +6°C° 0 mm 1 m/s 600 mmHg 93%
    03:00 +5°C° 0 mm 1 m/s 599 mmHg 92%
    04:00 +5°C° 0 mm 1 m/s 599 mmHg 91%
    05:00 +7°C° 0 mm 1 m/s 600 mmHg 86%
    06:00 +9°C° 0 mm 1 m/s 601 mmHg 80%
    07:00 +10°C° 0 mm 0 m/s 602 mmHg 75%
    08:00 +12°C° 0 mm 0 m/s 603 mmHg 65%
    09:00 +14°C° 0 mm 0 m/s 604 mmHg 56%
    10:00 +19°C° 0 mm 1 m/s 605 mmHg 46%
    11:00 +19°C° 0,1 mm 1 m/s 605 mmHg 44%
    12:00 +20°C° 0,1 mm 1 m/s 605 mmHg 43%
    13:00 +20°C° 0,1 mm 1 m/s 605 mmHg 41%
    14:00 +20°C° 0,4 mm 1 m/s 605 mmHg 44%
    15:00 +19°C° 0,4 mm 1 m/s 605 mmHg 47%
    16:00 +19°C° 0,4 mm 1 m/s 605 mmHg 50%
    17:00 +16°C° 0,6 mm 1 m/s 604 mmHg 61%
    18:00 +14°C° 0,6 mm 1 m/s 603 mmHg 73%
    19:00 +12°C° 0,6 mm 0 m/s 603 mmHg 84%
    20:00 +10°C° 0,2 mm 0 m/s 603 mmHg 86%
    21:00 +10°C° 0,2 mm 1 m/s 602 mmHg 88%
    22:00 +9°C° 0,2 mm 1 m/s 602 mmHg 91%
    23:00 +8°C° 0 mm 1 m/s 602 mmHg 90%

    27 Maio, Domingo

    Tempo Temperatura Precipitação Vento Pressão Humidade
    00:00 +8°C° 0 mm 1 m/s 602 mmHg 90%
    01:00 +8°C° 0 mm 1 m/s 602 mmHg 90%
    02:00 +7°C° 0 mm 1 m/s 601 mmHg 90%
    03:00 +7°C° 0 mm 1 m/s 601 mmHg 90%
    04:00 +6°C° 0 mm 1 m/s 600 mmHg 90%
    05:00 +8°C° 0 mm 1 m/s 601 mmHg 85%
    06:00 +10°C° 0 mm 1 m/s 602 mmHg 79%
    07:00 +12°C° 0 mm 0 m/s 603 mmHg 74%
    08:00 +14°C° 0 mm 0 m/s 604 mmHg 64%
    09:00 +18°C° 0 mm 1 m/s 605 mmHg 55%
    10:00 +20°C° 0 mm 1 m/s 605 mmHg 45%
    11:00 +20°C° 0,1 mm 1 m/s 605 mmHg 44%
    12:00 +20°C° 0,1 mm 1 m/s 605 mmHg 44%
    13:00 +20°C° 0,1 mm 1 m/s 605 mmHg 43%
    14:00 +20°C° 0,9 mm 1 m/s 604 mmHg 48%
    15:00 +18°C° 0,9 mm 2 m/s 604 mmHg 53%
    16:00 +18°C° 0,9 mm 2 m/s 604 mmHg 57%
    17:00 +16°C° 1,2 mm 1 m/s 603 mmHg 67%
    18:00 +15°C° 1,2 mm 1 m/s 602 mmHg 76%
    19:00 +12°C° 1,2 mm 0 m/s 602 mmHg 86%
    20:00 +11°C° 0,5 mm 0 m/s 601 mmHg 86%
    21:00 +11°C° 0,5 mm 1 m/s 601 mmHg 87%
    22:00 +10°C° 0,5 mm 1 m/s 601 mmHg 88%
    23:00 +9°C° 0,1 mm 1 m/s 601 mmHg 88%

    28 Maio, Segunda-feira

    Tempo Temperatura Precipitação Vento Pressão Humidade
    00:00 +9°C° 0,1 mm 1 m/s 600 mmHg 88%
    01:00 +8°C° 0,1 mm 1 m/s 600 mmHg 88%
    02:00 +8°C° 0 mm 1 m/s 600 mmHg 88%
    03:00 +7°C° 0 mm 1 m/s 599 mmHg 88%
    04:00 +7°C° 0 mm 1 m/s 599 mmHg 87%
    05:00 +9°C° 0 mm 1 m/s 600 mmHg 83%
    06:00 +11°C° 0 mm 1 m/s 601 mmHg 79%
    07:00 +12°C° 0 mm 1 m/s 601 mmHg 75%
    08:00 +14°C° 0,1 mm 1 m/s 602 mmHg 66%
    09:00 +16°C° 0,1 mm 1 m/s 603 mmHg 58%
    10:00 +18°C° 0,1 mm 2 m/s 604 mmHg 50%
    11:00 +18°C° 0,4 mm 2 m/s 604 mmHg 51%
    12:00 +19°C° 0,4 mm 2 m/s 604 mmHg 51%
    13:00 +19°C° 0,4 mm 2 m/s 604 mmHg 52%
    14:00 +19°C° 0,6 mm 2 m/s 603 mmHg 55%
    15:00 +18°C° 0,6 mm 2 m/s 603 mmHg 58%
    16:00 +18°C° 0,6 mm 2 m/s 602 mmHg 61%
    17:00 +16°C° 0,7 mm 2 m/s 602 mmHg 69%
    18:00 +15°C° 0,7 mm 2 m/s 601 mmHg 76%
    19:00 +13°C° 0,7 mm 2 m/s 601 mmHg 84%
    20:00 +12°C° 0,5 mm 2 m/s 601 mmHg 86%
    21:00 +10°C° 0,5 mm 2 m/s 601 mmHg 89%
    22:00 +9°C° 0,5 mm 2 m/s 600 mmHg 91%
    23:00 +9°C° 0,1 mm 2 m/s 600 mmHg 92%
    Mostrar mais